This is the latest recevied weather packets stored in our database for station/object AD7ZD. If no packets are shown the sender has not sent any weather packets the latest 10 day(s).
| Time | Temp. | Humidity | Pressure | Rain* | Wind** | Luminosity | Snow |
|---|---|---|---|---|---|---|---|
| 1777954130 | 10° C | 75% | 1008.3 hPa | 0 mm | - | 0 W/m² | - |
| 1777953828 | 10° C | 75% | 1008.4 hPa | 0 mm | - | 0 W/m² | - |
| 1777953524 | 10° C | 75% | 1008.1 hPa | 0.51 mm | - | 0 W/m² | - |
| 1777953220 | 10° C | 74% | 1008.1 hPa | 0.51 mm | - | 0 W/m² | - |
| 1777952918 | 10.56° C | 71% | 1008.1 hPa | 1.27 mm | - | 0 W/m² | - |
| 1777952614 | 10.56° C | 70% | 1008 hPa | 0.51 mm | - | 0 W/m² | - |
| 1777952311 | 10.56° C | 68% | 1007.9 hPa | 0 mm | - | 0 W/m² | - |
| 1777952008 | 11.11° C | 64% | 1008 hPa | 0 mm | - | 0 W/m² | - |
| 1777951707 | 11.67° C | 61% | 1008.1 hPa | 0 mm | - | 0 W/m² | - |
| 1777951402 | 11.67° C | 60% | 1007.9 hPa | 0 mm | - | 0 W/m² | - |
| 1777951100 | 11.67° C | 61% | 1007.9 hPa | 0 mm | - | 0 W/m² | - |
| 1777950796 | 11.67° C | 61% | 1007.7 hPa | 0 mm | - | 0 W/m² | - |
| 1777950494 | 11.11° C | 61% | 1007.6 hPa | 0 mm | - | 0 W/m² | - |
| 1777950190 | 11.11° C | 61% | 1007.6 hPa | 0 mm | - | 0 W/m² | - |
| 1777949885 | 11.11° C | 61% | 1007.7 hPa | 0 mm | - | 0 W/m² | - |
| 1777949583 | 11.67° C | 61% | 1007.6 hPa | 0 mm | - | 0 W/m² | - |
| 1777949281 | 11.67° C | 61% | 1007.6 hPa | 0 mm | - | 0 W/m² | - |
| 1777948978 | 11.67° C | 61% | 1007.3 hPa | 0 mm | - | 0 W/m² | - |
| 1777948676 | 11.67° C | 61% | 1007.3 hPa | 0 mm | - | 0 W/m² | - |
| 1777948372 | 11.11° C | 60% | 1007.1 hPa | 0 mm | - | 2 W/m² | - |
| 1777948069 | 11.11° C | 60% | 1007.2 hPa | 0 mm | - | 9 W/m² | - |
| 1777947767 | 11.11° C | 60% | 1007.1 hPa | 0 mm | - | 15 W/m² | - |
| 1777947463 | 11.11° C | 60% | 1007 hPa | 0 mm | - | 18 W/m² | - |
| 1777947160 | 11.11° C | 60% | 1007 hPa | 0 mm | - | 21 W/m² | - |
| 1777946856 | 11.11° C | 60% | 1007.1 hPa | 0 mm | - | 26 W/m² | - |
* Rain latest hour (hover to see other rain measurements)
** Current wind speed in m/s (hover to see current wind gust speed)